Regional Weather Roundup
Issued by NWS Grand Forks, ND

Home | Current Version | Previous Version | Graphics & Text | Print | Product List | Glossary On
Versions: 1 2 3 4 5 6 7 8 9 10 11 12 13 14 15 16 17 18 19 20 21 22 23 24 25 26 27 28 29 30 31 32 33 34 35 36 37 38 39 40 41 42 43 44 45 46 47 48 49 50
000
ASUS43 KFGF 091010
RWRFGF
PRAIRIE TO PINES  WEATHER ROUNDUP
NATIONAL WEATHER SERVICE EASTERN NORTH DAKOTA/GRAND FORKS ND
400 AM CST TUE FEB 09 2016

 **SATELLITE DATA USED TO AUGMENT SKY COVER AT AUTOMATED STATIONS**
 *****  WEATHER ACROSS EASTERN NORTH DAKOTA  *****

CITY           SKY/WX    TMP DP  RH WIND       PRES   REMARKS
GRAND FORKS    CLOUDY    10   3  73 NW13      30.25F WCI  -5
GRAND FRKS AFB CLOUDY     9   2  75 NW9       30.25F WCI  -4
DEVILS LAKE    CLOUDY    13   8  81 CALM      30.24F
FARGO          CLEAR      4  -1  80 NW9       30.25S WCI -10
WAHPETON ARPT  SUNNY      5   0  78 NW9       30.25R WCI  -9
$$

 ***** WEATHER ACROSS CENTRAL AND WESTERN NORTH DAKOTA  *****

CITY           SKY/WX    TMP DP  RH WIND       PRES   REMARKS
BISMARCK       CLOUDY    25  10  53 NW3       30.27F
MINOT          CLOUDY    26  13  57 SW5       30.22F WCI  20
JAMESTOWN      CLOUDY    11   7  84 NW6       30.24S WCI   1
MINOT AFB      CLOUDY    23  18  81 CALM      30.22F
GARRISON         N/A     22  15  75 SW5       30.23F WCI  16
WILLISTON      CLOUDY    29  21  72 S3        30.21F
DICKINSON      CLOUDY    25  17  72 SE7       30.18F WCI  17
HETTINGER      CLOUDY    28  17  63 W5        30.22F WCI  23
$$

 *****  OTHER AIRPORT OBSERVATIONS IN OUR AREA  *****

CITY           SKY/WX    TMP DP  RH WIND       PRES   REMARKS
WALHALLA       FAIR      10   7  85 N10       30.27F WCI  -3
GRAFTON AIRPOR CLOUDY    10   5  79 N14       30.28F WCI  -5
VALLEY CITY AR CLOUDY     9   7  92 NW7       30.25F WCI  -3
CANDO          NOT AVBL
CAVALIER APRT  CLOUDY    10   5  79 N12       30.27F WCI  -4
GWINNER        FAIR      10   5  79 N10       30.25R WCI  -3
SHEYENNE NWR     N/A      5  -2  73 N7        29.95S WCI  -7
ROLLA          CLOUDY    16   7  67 NW3       30.21F
 ***** THE ABOVE OBSERVATIONS ARE NON NWS ARE NOT QUALITY
       CONTROLLED AND MAY MIS-REPORT RAIN FOR SNOW...
$$

  *****  WEATHER ACROSS NORTHERN MINNESOTA  *****

CITY           SKY/WX    TMP DP  RH WIND       PRES   REMARKS
FLAG ISLAND    MOCLDY    -6  -9  84 NW13      30.17R WCI -25
WARROAD        PTCLDY    -4  -8  84 NW7       30.19S WCI -18
ROSEAU         PTCLDY    -4  -9  77 CALM      30.20S
HALLOCK        CLOUDY     3  -2  78 NW6       30.25F WCI  -8
THF RVR FALLS  NOT AVBL
BAUDETTE       CLOUDY    -3  -9  75 NW13      30.14R WCI -22
WASKISH        CLOUDY    -4  -8  84 W6        30.14R WCI -16
CROOKSTON      PTCLDY     1  -2  85 N7        30.25F WCI -11
STEPHEN NDAWN    N/A      3   0  85 N7          N/A  WCI  -9
GREENBUSH NDAW   N/A      0  -4  85 NW9         N/A  WCI -16
$$
  *****  WEATHER ACROSS CENTRAL AND WEST MINNESOTA  *****

CITY           SKY/WX    TMP DP  RH WIND       PRES   REMARKS
FOSSTON        CLOUDY    -2  -6  84 NW7       30.19S WCI -16
BEMIDJI        CLOUDY    -2  -5  86 NW12      30.13R WCI -19
PARK RAPIDS    MOCLDY     3  -3  76 N17G23    30.10S WCI -17
ELBOW LAKE     FAIR       3  -1  81 NW15      30.18R WCI -15
WADENA         CLEAR      1  -4  78 NW14      30.11R WCI -17
DETROIT LAKES  CLOUDY     3   0  85 N13       30.17S WCI -14
MOORHEAD       CLEAR      3   0  85 N12       30.24F WCI -13
FERGUS FALLS   CLEAR      3  -2  78 N16G23    30.24R WCI -16
MORRIS MN      CLEAR      5   0  78 N24G31    30.16S WCI -17
STAPLES        CLEAR      1  -4  78 NW14G22   30.10R WCI -17
$$
  *****  WEATHER ELSEWHERE ACROSS MINNESOTA  *****

CITY           SKY/WX    TMP DP  RH WIND       PRES   REMARKS
DULUTH         CLOUDY     2  -5  72 N18G24    29.94S WCI -19
INTRNTL FALLS  CLOUDY    -1  -6  79 N10       30.08S WCI -17
ELY            CLOUDY     0  -4  85 NW8       29.97R WCI -15
CLOQUET        CLOUDY     1  -6  71 NW13G22   29.98R WCI -16
WHEATON        CLEAR      7   1  78 NW16G23   30.25R WCI -11
BRAINERD       PTCLDY     3  -3  76 N15       30.07R WCI -16
HIBBING        CLOUDY    -2  -7  79 NW18      30.01R WCI -24
ALEXANDRIA     CLEAR      3  -3  76 NW15      30.12R WCI -16
SAINT CLOUD    CLEAR      5  -3  69 NW13G22   30.06R WCI -12
MINNEAPOLIS    MOCLDY     8   0  69 N17G23    30.04R WCI -10
$$

  *****  WEATHER ACROSS SOUTH DAKOTA  *****

CITY           SKY/WX    TMP DP  RH WIND       PRES   REMARKS
SIOUX FALLS    CLEAR      9   2  73 N23       30.14S WCI -11
BROOKINGS      CLEAR      5   0  79 N18G25    30.14S WCI -15
WATERTOWN      CLEAR      4  -2  76 N16       30.16S WCI -15
HURON          CLEAR     13   8  81 N13       30.25S WCI  -2
SISSETON         N/A      5   1  83 N14       30.23S WCI -12
ABERDEEN       CLEAR     12   6  77 N12       30.27S WCI  -2
MITCHELL       CLEAR     15   9  76 NW14      30.24S WCI   0
PIERRE         CLOUDY    24  14  65 N10       30.26R WCI  14
MOBRIDGE       CLOUDY    23  10  57 N9        30.24F WCI  13
RAPID CITY     CLEAR     25  15  66 CALM      30.22S
$$

  *****  SOME WEATHER IN NEARBY STATES *****

CITY           SKY/WX    TMP DP  RH WIND       PRES   REMARKS
GLASGOW MT     CLOUDY    30  24  78 N9        30.25S WCI  22
GREAT FALLS MT CLEAR     40  29  64 SW16      30.32S
CHEYENNE WY    CLEAR     38  19  46 NW15G26   30.29S
SCOTTSBLUFF NE CLEAR     33  25  72 NW14      30.23F WCI  23
OMAHA NE       CLEAR     17   9  70 N18G24    30.13R WCI   1
DES MOINES IA  FLURRIES  13   5  70 N12G24    30.02R WCI  -1
DAVENPORT IA   LGT SNOW  15   9  76 NW16      29.86S WCI  -1
CHICAGO IL     LGT SNOW  18  13  80 NW14      29.73S WCI   4
EAU CLAIRE WI  CLOUDY     7  -2  66 NW18G26   29.94R WCI -12
LA CROSSE WI   MOCLDY     9   0  67 N12       29.94R WCI  -6
$$

  *****  SOME NATIONAL WEATHER *****

CITY           SKY/WX    TMP DP  RH WIND       PRES   REMARKS
LA GUARDIA NY  FLURRIES  28  23  81 NE13      29.66F WCI  17
RALEIGH NC     CLOUDY    36  33  89 CALM      29.61R
ATLANTA GA     CLOUDY    34  21  59 NW13      29.80S WCI  25
NEW ORLEANS LA PTCLDY    44  19  36 W13       30.12S
OKLAHOMA CITY  PTCLDY    33  14  45 NW7       30.23S
ALBUQUERQUE NM CLOUDY    32  20  61 CALM      30.40S
SALT LAKE CITY PTCLDY    26  22  84 SE7       30.61F WCI  18
LOS ANGELES CA CLEAR     63  29  27 NE3       30.12S
BOISE ID       CLOUDY    31  26  82 S5        30.62S
SEATTLE WA     CLEAR     45  41  86 N10       30.23F
$$

*** WEATHER ACROSS MANITOBA...SASKATCHEWAN AND ONTARIO ***
                ***ONTARIO***

CITY           SKY/WX    TMP DP  RH WIND       PRES   REMARKS
GERALDTON      LGT SNOW  -4  -9  77 NW9G17    29.85S DRFTSNOWWCI -20
THUNDER BAY    LGT SNOW   5  -2  72 NW9G17    29.93R WCI  -9
SIOUX LOOKOUT  FLURRIES  -2  -8  78 N10G18    30.05R WCI -19
TORONTO        LGT SNOW  28  25  86 E10       29.49S WCI  19
BIG TROUT LK   LGT SNOW -13 -18  77 NW9G21    30.13R WCI -31
PICKLE LAKE    NOT AVBL
DRYDEN         MOCLDY    -4  -8  84 N12G18    30.05S WCI -22
KENORA         CLEAR     -6  -9  84 N8        30.13R WCI -21
$$
                *** MANITOBA***

CITY           SKY/WX    TMP DP  RH WIND       PRES   REMARKS
BRANDON        CLOUDY    14   9  79 W2        30.23F
DAUPHIN        CLOUDY    12   7  79 NE3       30.28S
ISLAND LAKE    NOT AVBL
PILOT MOUND    NOT AVBL
THE PAS        CLEAR     -6 -11  77 VRB2      30.38R
THOMPSON       CLEAR    -26 -31  75 NW2       30.39R
WINNIPEG       CLOUDY     5  -2  72 N9        30.28S WCI  -9
LYNN LAKE      CLEAR    -27 -33  75 NW7       30.38S WCI -46
CHURCHILL      CRYSTALS -22 -29  69 N15       30.42R DRFTSNOWWCI -48
GILLAM         CLEAR    -26 -31  75 NW10      30.36S WCI -48
$$
                ***SASKATCHEWAN***

CITY           SKY/WX    TMP DP  RH WIND       PRES   REMARKS
ESTEVAN        MOCLDY    23  19  86 S7        30.18F WCI  15
KINDERSLEY     CLOUDY    28  27  93 SW6       30.21R WCI  22
LLOYDMINSTER   CLOUDY    32  30  93 CALM      30.16F FOG
PRINCE ALBERT  MOCLDY    21  18  86 E9        30.23F WCI  11
REGINA         MOCLDY    23  21  93 CALM      30.18R
YORKTON        CLOUDY    21  19  93 NW5       30.21R WCI  15
N. BATTLEFORD  CLOUDY    25  25 100 VRB2      30.23S
LA RONGE       CLOUDY     3  -2  78 NE6       30.30F WCI  -8
SASKATOON      CLOUDY    21  19  93 SW5       30.24R WCI  15
SWIFT CURRENT  CLOUDY    32  27  80 W12       30.20S WCI  23
$$
NOTE: THESE ARE AUTOMATED STATIONS WITH LIMITED QUALITY CONTROL
      "FAIR" INDICATES FEW OR NO CLOUDS BELOW 12,000 FEET WITH NO
      SIGNIFICANT WEATHER AND/OR OBSTRUCTIONS TO VISIBILITY.
      SKY/WX - SKY CONDITION AND SIGNIFICANT WEATHER.
      TMP - AIR TEMPERATURE.    DP   - DEWPOINT TEMPERATURE.
      RH  - RELATIVE HUMIDITY.  PRES - PRESSURE.
      HX  - HEAT INDEX.         WCI  - WIND CHILL INDEX.
$



USA.gov is the U.S. government's official web portal to all federal, state and local government web resources and services.